TimeIST,TemperatureF,Dew PointF,Humidity,Sea Level PressureIn,VisibilityMPH,Wind Direction,Wind SpeedMPH,Gust SpeedMPH,PrecipitationIn,Events,Conditions,WindDirDegrees,DateUTC
12:10 AM,77.0,75.2,94,29.89,1.9,East,3.5,-,N/A,Rain,Light Rain,80,2012-10-23 18:40:00
12:40 AM,77.0,75.2,94,29.89,1.9,East,3.5,-,N/A,Rain,Light Rain,100,2012-10-23 19:10:00
1:10 AM,77.0,75.2,94,29.89,1.9,ESE,3.5,-,N/A,Rain,Rain,110,2012-10-23 19:40:00
1:40 AM,77.0,75.2,94,29.86,1.9,ESE,3.5,-,N/A,Rain,Rain,110,2012-10-23 20:10:00
2:10 AM,77.0,75.2,94,29.86,1.9,ESE,3.5,-,N/A,,Drizzle,110,2012-10-23 20:40:00
2:30 AM,76,74,91,29.86,1,ESE,4.6,,,Rain,Drizzle,110,2012-10-23 21:00:00
2:40 AM,75.2,73.4,94,29.86,2.5,ESE,3.5,-,N/A,,Light Drizzle,110,2012-10-23 21:10:00
4:10 AM,75.2,73.4,94,29.86,1.9,NE,4.6,-,N/A,Rain,Rain,40,2012-10-23 22:40:00
5:10 AM,75.2,73.4,94,29.86,1.9,NE,8.1,-,N/A,Rain,Light Rain,50,2012-10-23 23:40:00
5:30 AM,74,73,96,29.87,1,NE,6.9,,,Rain,Drizzle,50,2012-10-24 00:00:00
6:10 AM,73.4,73.4,100,29.89,1.9,NE,6.9,-,N/A,,Drizzle,50,2012-10-24 00:40:00
7:10 AM,73.4,73.4,100,29.89,1.9,ENE,5.8,-,N/A,,Drizzle,60,2012-10-24 01:40:00
7:40 AM,75.2,73.4,94,29.92,2.5,NE,6.9,-,N/A,,Drizzle,50,2012-10-24 02:10:00
8:10 AM,75.2,73.4,94,29.92,2.5,ENE,6.9,-,N/A,,Drizzle,70,2012-10-24 02:40:00
8:30 AM,75,74,97,29.93,2,ENE,9.2,,,Rain,Light Drizzle,70,2012-10-24 03:00:00
8:40 AM,75.2,73.4,94,29.92,2.5,ENE,9.2,-,N/A,,Drizzle,70,2012-10-24 03:10:00
9:10 AM,75.2,73.4,94,29.92,2.5,NE,6.9,-,N/A,,Light Drizzle,50,2012-10-24 03:40:00
9:40 AM,75.2,75.2,100,29.92,2.5,NE,6.9,-,N/A,,Light Drizzle,50,2012-10-24 04:10:00
10:10 AM,77.0,75.2,94,29.92,2.5,ENE,9.2,-,N/A,,Light Drizzle,60,2012-10-24 04:40:00
10:40 AM,77.0,75.2,94,29.92,2.5,ENE,4.6,-,N/A,,Light Drizzle,60,2012-10-24 05:10:00
11:10 AM,77.0,73.4,89,29.92,2.5,NE,4.6,-,N/A,,Light Drizzle,50,2012-10-24 05:40:00
11:30 AM,77,74,90,29.89,2,ENE,6.9,,,Rain,Light Drizzle,70,2012-10-24 06:00:00
11:40 AM,77.0,75.2,94,29.89,2.5,ENE,6.9,-,N/A,,Light Drizzle,70,2012-10-24 06:10:00
12:10 PM,77.0,75.2,94,29.89,2.5,ENE,4.6,-,N/A,,Light Drizzle,70,2012-10-24 06:40:00
12:40 PM,77.0,75.2,94,29.83,2.5,NNE,4.6,-,N/A,,Light Drizzle,30,2012-10-24 07:10:00
1:40 PM,78.8,75.2,89,29.80,3.1,North,3.5,-,N/A,,Haze,350,2012-10-24 08:10:00
2:10 PM,78.8,75.2,89,29.80,3.1,Calm,Calm,-,N/A,,Light Drizzle,0,2012-10-24 08:40:00
2:30 PM,79,75,85,29.79,2,Calm,Calm,,,Rain,Light Drizzle,,2012-10-24 09:00:00
2:40 PM,78.8,75.2,89,29.77,3.1,Calm,Calm,-,N/A,,Light Drizzle,0,2012-10-24 09:10:00
3:10 PM,78.8,75.2,89,29.77,3.1,Calm,Calm,-,N/A,,Haze,0,2012-10-24 09:40:00
3:40 PM,78.8,75.2,89,29.77,3.1,NE,3.5,-,N/A,,Haze,40,2012-10-24 10:10:00
4:10 PM,78.8,75.2,89,29.80,3.1,NNE,3.5,-,N/A,,Haze,30,2012-10-24 10:40:00
4:40 PM,78.8,75.2,89,29.80,3.1,NE,4.6,-,N/A,,Haze,40,2012-10-24 11:10:00
5:10 PM,78.8,75.2,89,29.80,3.1,NE,3.5,-,N/A,,Haze,50,2012-10-24 11:40:00
5:30 PM,79,75,85,29.81,2,NNE,5.8,,,,Haze,20,2012-10-24 12:00:00
5:40 PM,78.8,75.2,89,29.80,3.1,NNE,4.6,-,N/A,,Haze,20,2012-10-24 12:10:00
6:10 PM,78.8,75.2,89,29.83,3.1,North,5.8,-,N/A,,Haze,10,2012-10-24 12:40:00
6:40 PM,78.8,75.2,89,29.83,3.1,North,2.3,-,N/A,,Haze,360,2012-10-24 13:10:00
7:10 PM,77.0,75.2,94,29.83,3.1,Calm,Calm,-,N/A,,Haze,0,2012-10-24 13:40:00
7:40 PM,77.0,75.2,94,29.86,3.1,Calm,Calm,-,N/A,,Haze,0,2012-10-24 14:10:00
8:10 PM,77.0,75.2,94,29.86,3.1,Calm,Calm,-,N/A,,Haze,0,2012-10-24 14:40:00
8:30 PM,76,74,90,29.87,2,,2.3,,,,Haze,,2012-10-24 15:00:00
8:40 PM,77.0,73.4,89,29.86,3.1,Variable,2.3,-,N/A,,Haze,0,2012-10-24 15:10:00
9:10 PM,77.0,73.4,89,29.89,3.1,Variable,2.3,-,N/A,,Haze,0,2012-10-24 15:40:00
9:40 PM,75.2,73.4,94,29.89,3.1,Variable,2.3,-,N/A,,Haze,0,2012-10-24 16:10:00
10:10 PM,75.2,73.4,94,29.89,3.1,Variable,2.3,-,N/A,,Haze,0,2012-10-24 16:40:00
10:40 PM,75.2,73.4,94,29.89,3.1,Variable,2.3,-,N/A,,Haze,0,2012-10-24 17:10:00
11:10 PM,75.2,73.4,94,29.89,3.1,WNW,2.3,-,N/A,,Haze,300,2012-10-24 17:40:00
11:30 PM,75,74,94,29.87,2,Calm,Calm,,,,Haze,,2012-10-24 18:00:00
11:40 PM,75.2,73.4,94,29.86,2.5,Calm,Calm,-,N/A,,Haze,0,2012-10-24 18:10:00